Flag for Thailand Weather past 2 weeks in Hat Yai, Thailand

Now
77 °F

Light rain. Partly cloudy.


Feels Like: 78 °F
Forecast: 79 / 91 °F
Wind: 10 mph from Southwest

Location: Hat Yai Airport

Current Time: Jul 7, 2015 at 5:33:44 AM

Latest Report: Jul 7, 2015 at 5:00 AM


Visibility: 6 mi

Pressure: 29.74 "Hg

Humidity: 94%

Dew point: 75 °F

Location of Hat YaiLocation

Historic Weather in Hat Yai — Graph

°F

Hat Yai temperature yesterday

Maximum temperature yesterday: 91 °F (at 2:30 PM)
Minimum temperature yesterday: 77 °F (at 5:00 AM)
Average temperature yesterday: 83 °F

Past Weeks' High & Low Weather Summary

 TemperatureHumidityPressure
High97 °F (Jun 27, 4:00 PM)100% (Jun 22, 6:00 AM)29.98 "Hg (Jun 22, 6:00 AM)
Low75 °F (Jun 22, 6:00 AM)47% (Jul 1, 2:30 PM)29.68 "Hg (Jul 6, 3:00 PM)
Average83 °F81%29.83 "Hg
* Reported Jun 22 4:00 AM — Jul 7 4:00 AM, Hat Yai, Weather by CustomWeather, © 2015

Note: Actual official high and low records may vary slightly from our data, if they occured in-between our weather recording intervals... More about our weather records

Advertising

Hat Yai weather history for previous 24 hours

 ConditionsComfort  
Time TempWeatherWind HumidityBarometerVisibility
4:00 AM
Tue, Jul 7
77 °FPartly cloudy.6 mph94%29.74 "HgN/A
3:30 AM77 °FPartly cloudy.5 mph94%29.71 "HgN/A
3:00 AM77 °FPartly cloudy.3 mph94%29.71 "HgN/A
2:30 AM77 °FPartly cloudy.2 mph94%29.74 "HgN/A
2:00 AM77 °FPartly cloudy.5 mph100%29.74 "HgN/A
1:30 AM79 °FLight rain. Partly cloudy.6 mph94%29.77 "Hg6 mi
1:00 AM77 °FPartly cloudy.No wind100%29.77 "HgN/A
12:30 AM79 °FPartly cloudy.3 mph94%29.77 "HgN/A
12:00 AM79 °FPartly cloudy.2 mph94%29.77 "HgN/A
11:30 PM
Mon, Jul 6
79 °FLight rain. Partly cloudy.2 mph94%29.80 "Hg6 mi
11:00 PM81 °FLight rain. Partly cloudy.10 mph89%29.80 "Hg5 mi
10:30 PM81 °FPartly cloudy.5 mph89%29.77 "HgN/A
10:00 PM82 °FPartly cloudy.3 mph79%29.77 "HgN/A
9:30 PM82 °FPartly cloudy.5 mph84%29.77 "HgN/A
9:00 PM82 °FPartly cloudy.2 mph84%29.77 "HgN/A
8:30 PM82 °FLight rain. Partly cloudy.2 mph84%29.74 "HgN/A
8:00 PM84 °FPartly cloudy.9 mph74%29.74 "HgN/A
7:30 PM84 °FPartly cloudy.7 mph79%29.71 "HgN/A
7:00 PM86 °FPartly cloudy.6 mph75%29.71 "HgN/A
6:30 PM86 °FBroken clouds.6 mph75%29.71 "HgN/A
6:00 PM88 °FBroken clouds.6 mph70%29.71 "HgN/A
5:30 PM90 °FBroken clouds.6 mph67%29.68 "HgN/A
5:00 PM90 °FBroken clouds.8 mph63%29.68 "HgN/A
4:30 PM90 °FBroken clouds.6 mph67%29.68 "HgN/A
4:00 PM91 °FBroken clouds.9 mph63%29.68 "HgN/A
3:30 PM90 °FBroken clouds.7 mph63%29.68 "HgN/A
3:00 PM90 °FBroken clouds.13 mph63%29.68 "HgN/A
2:30 PM91 °FBroken clouds.12 mph67%29.71 "HgN/A
2:00 PM90 °FBroken clouds.7 mph71%29.71 "HgN/A
1:30 PM90 °FBroken clouds.8 mph71%29.74 "HgN/A
1:00 PM86 °FBroken clouds.5 mph79%29.74 "HgN/A
12:30 PM82 °FBroken clouds.7 mph89%29.74 "HgN/A
12:00 PM81 °FBroken clouds.7 mph89%29.77 "HgN/A
11:30 AM81 °FLight rain. Broken clouds.12 mph89%29.77 "Hg4 mi
11:00 AM90 °FBroken clouds.6 mph71%29.77 "HgN/A
10:30 AM88 °FBroken clouds.6 mph70%29.77 "HgN/A
10:00 AM86 °FBroken clouds.3 mph75%29.77 "HgN/A
9:30 AM86 °FPartly sunny.5 mph79%29.77 "HgN/A
9:00 AM86 °FPartly sunny.6 mph79%29.77 "HgN/A
8:30 AM84 °FPartly sunny.5 mph84%29.77 "HgN/A
8:00 AM82 °FPartly sunny.6 mph89%29.77 "HgN/A
7:30 AM81 °FPartly sunny.5 mph94%29.77 "HgN/A
7:00 AM79 °FPartly sunny.3 mph94%29.77 "HgN/A
6:30 AM77 °FPartly sunny.3 mph100%29.77 "HgN/A
6:00 AM77 °FPassing clouds.No wind100%29.77 "HgN/A
5:30 AM77 °FPassing clouds.No wind100%29.77 "HgN/A
5:00 AM77 °FPassing clouds.No wind100%29.74 "HgN/A
Weather by CustomWeather, © 2015

See weather overviewHow to use our weather pages